Location: Castle Hill Houses
(40.8186°N, 73.8497°W)
Time: 11:11:02
(UTC+00:00)

Cosmos 2218 Rocket - Pass Details

Date: 26 January 2020
Orbit: 956 x 1006 km, 82.9° (Epoch: 18 February)

Event Time Altitude Azimuth Distance (km) Brightness Sun altitude
Rises 10:32:16 0° 350° (N) 3,737 6.9 -18.7°
Reaches altitude 10° 10:34:49 10° 348° (NNW) 2,779 6.2 -18.3°
Maximum altitude 10:41:09 70° 267° (W) 1,053 3.9 -17.1°
Drops below altitude 10° 10:47:23 10° 184° (S) 2,730 6.4 -15.9°
Sets 10:49:52 0° 182° (S) 3,667 7.1 -15.5°
